This is the latest recevied weather packets stored in our database for station/object HB9CJD-1. If no packets are shown the sender has not sent any weather packets the latest 10 day(s).
| Time | Temp. | Humidity | Pressure | Rain* | Wind** | Luminosity | Snow |
|---|---|---|---|---|---|---|---|
| 1777574685 | 17.22° C | 26% | 1023.9 hPa | - | - | - | - |
| 1777574082 | 18.33° C | 27% | 1023.8 hPa | - | - | - | - |
| 1777574082 | 18.33° C | 27% | 1023.8 hPa | - | - | - | - |
| 1777573479 | 19.44° C | 24% | 1023.8 hPa | - | - | - | - |
| 1777573479 | 19.44° C | 24% | 1023.8 hPa | - | - | - | - |
| 1777572876 | 20.56° C | 22% | 1023.6 hPa | - | - | - | - |
| 1777572875 | 20.56° C | 22% | 1023.6 hPa | - | - | - | - |
| 1777572272 | 21.11° C | 20% | 1023.5 hPa | - | - | - | - |
| 1777572272 | 21.11° C | 20% | 1023.5 hPa | - | - | - | - |
| 1777571669 | 21.67° C | 19% | 1023.6 hPa | - | - | - | - |
| 1777571669 | 21.67° C | 19% | 1023.6 hPa | - | - | - | - |
| 1777571066 | 21.11° C | 20% | 1023.5 hPa | - | - | - | - |
| 1777571066 | 21.11° C | 20% | 1023.5 hPa | - | - | - | - |
| 1777570463 | 22.22° C | 23% | 1023.4 hPa | - | - | - | - |
| 1777570463 | 22.22° C | 23% | 1023.4 hPa | - | - | - | - |
| 1777569859 | 22.22° C | 22% | 1023.3 hPa | - | - | - | - |
| 1777569859 | 22.22° C | 22% | 1023.3 hPa | - | - | - | - |
| 1777569256 | 21.11° C | 24% | 1023.3 hPa | - | - | - | - |
| 1777569256 | 21.11° C | 24% | 1023.3 hPa | - | - | - | - |
| 1777568653 | 21.11° C | 25% | 1023.1 hPa | - | - | - | - |
| 1777568653 | 21.11° C | 25% | 1023.1 hPa | - | - | - | - |
| 1777568050 | 21.67° C | 24% | 1023.2 hPa | - | - | - | - |
| 1777568050 | 21.67° C | 24% | 1023.2 hPa | - | - | - | - |
| 1777567447 | 21.67° C | 24% | 1023.1 hPa | - | - | - | - |
| 1777567446 | 21.67° C | 24% | 1023.1 hPa | - | - | - | - |
* Rain since midnight (hover to see other rain measurements)
** Current wind speed in m/s (hover to see current wind gust speed)